www.pogodaiklimat.ru

Погода и климат >> Архив погоды >> Россия >> Хабаровский край >> Советская Гавань


АРХИВ ПОГОДЫ в Советской Гавани

Время (UTC), дата Ветер
(напр.,м/с)
 
Видим.   Явления Облачность Т
(С)
Тd
(С)
f
(%)
Тe
(С)
Тes
(С)
Комфортность P
(гПа)
Po
(гПа)
Тmin
(С)
Tmax
(С)
R
(мм)
R24
(мм)
S
(см)
18 19.05 С 2 11 км 10/6 600 м
[Sc Ac As]
+5.0 +4.0 93 +2 +2 1006.7 1004.1
21 19.05 СЗ 2 2000 м туман ?/? +5.8 +5.2 96 +3 +3 1005.8 1003.2 +5.0
00 20.05 СВ 2 2000 м дымка 10/4 50 м
[St Ac As]
+6.4 +4.6 88 +4 +6 1004.6 1002.0
03 20.05 Ю 4 20 км слаб. ливневой дождь 10/6 600 м
[Cb cap Ac As]
+11.1 +7.9 81 +9 +10 1003.2 1000.7
06 20.05 Ю 6 4000 м ливневой дождь 10/10 300 м
[Cb cap]
+9.7 +8.3 91 +6 +6 1002.7 1000.2
09 20.05 Ю 4-10
{12}
10 км {ливн. осадки} 10/8 300 м
[Cb cap Ac trans Ci fib]
+9.2 +7.8 91 +6 +6 1003.2 1000.6 +11.2 3
12 20.05 штиль 0 9000 м {ливн. осадки} 10/9 300 м
[Cb cap Ac As]
+9.5 +8.4 93 +9 +9 1002.4 999.9
15 20.05 Ю 6 8000 м слаб. ливневой дождь 10/10 300 м
[Cb cap]
+9.7 +8.4 92 +6 +6 1001.6 999.1
18 20.05 ЮЗ 2
{16}
6000 м слаб. морось 10/10 300 м
[St]
+8.1 +7.0 93 +6 +6 1000.3 997.8
21 20.05 Ю 2 4000 м слаб. ливневой дождь {морось} 10/10 300 м
[Cb cap]
+9.8 +8.6 92 +8 +8 999.7 997.1 +8.0 1
00 21.05 ЮВ 2 4000 м слаб. ливневой дождь 10/10 300 м
[Cb cap]
+10.7 +9.4 92 +9 +9 998.3 995.8
03 21.05 ЮВ 4
{10}
4000 м слаб. ливневой дождь {морось} 10/10 300 м
[Cb cap]
+10.7 +9.4 92 +8 +8 997.4 994.9
06 21.05 ЮЗ 2
{12}
4000 м слаб. ливневой дождь 10/10 300 м
[Cb cap]
+10.0 +8.4 90 +8 +8 996.6 994.1
09 21.05 СВ 2 4000 м слаб. ливневой дождь 10/8 300 м
[Cb cap Ac und]
+8.4 +7.7 95 +6 +6 994.2 991.7 +11.3 5
12 21.05 СВ 2 5000 м {ливн. осадки} 10/8 300 м
[Cb cap Ac und]
+6.5 +5.9 96 +4 +4 996.1 993.6
15 21.05 СВ 2 100 м туман ?/? +5.8 +5.3 97 +3 +3 996.4 993.8
18 21.05 штиль 0 3800 м дымка {туман} 10/10 300 м
[St]
+5.1 +4.7 97 +4 +4 995.9 993.4
21 21.05 штиль 0 2000 м дымка {туман} 10/10 300 м
[St]
+6.2 +5.9 98 +5 +5 997.1 994.6 +4.8 0.5
00 22.05 Ю 4
{12}
20 км {туман} 4/3 300 м
[St Ac lent Ci fib]
+11.7 +8.0 78 +10 +15 997.2 994.7
03 22.05 Ю 4-12
{12}
20 км 1/1 200 м
[St]
+13.9 +8.0 68 +13 +23 996.8 994.3
06 22.05 Ю 8-18
{18}
20 км 1/1 200 м
[St]
+11.8 +6.8 71 +9 +10 996.8 994.3
09 22.05 Ю 6-14
{20}
10 км 4/1 600 м
[St Ci fib]
+8.9 +6.4 84 +5 +5 997.7 995.2 +15.0
12 22.05 штиль 0 11 км 10/4 300 м
[St Ac trans Ci fib]
+7.7 +5.9 88 +7 +7 999.3 996.8
15 22.05 штиль 0 15 км 4/3 600 м
[Sc Ci fib]
+6.1 +5.3 95 +5 +5 999.3 996.7
18 22.05 штиль 0 17 км 3/3 600 м
[Sc Ci fib]
+4.7 +4.0 95 +4 +4 999.0 996.4
21 22.05 штиль 0 50 км 3/3 600 м
[Sc]
+6.0 +5.4 96 +5 +7 1000.6 998.0 +3.1
00 23.05 штиль 0 50 км 10/4 600 м
[Sc As trans Cc]
+11.8 +6.8 71 +11 +16 1000.6 998.0
03 23.05 В 2 50 км 6/5 600 м
[Cu Sc Ac trans]
+18.5 +5.7 43 +19 +27 1000.0 997.6
06 23.05 З 6 20 км гроза без осадков 10/5 600 м
[Cb cap Ac cuf Cc]
+14.1 +5.7 57 +12 +13 1000.7 998.2
09 23.05 С 2 50 км {гроза} 4/3 600 м
[Sc Ac lent Ci fib]
+11.8 +6.1 68 +11 +12 1000.9 998.4 +20.1 0.3
12 23.05 СВ 2 30 км {гроза} 10/8 600 м
[Sc Ac lent]
+6.3 +4.5 88 +4 +4 1002.6 1000.1
15 23.05 штиль 0 6000 м дымка 10/3 300 м
[St Ac trans Ci fib]
+3.8 +3.0 95 +3 +3 1003.1 1000.5
18 23.05 штиль 0 11 км {туман} 10/8 300 м
[St Ac lent Ci fib]
+7.1 +6.6 97 +6 +6 1002.8 1000.2
21 23.05 ЮЗ 2 20 км в посл. час ливневой дождь 10/8 300 м
[Cb cap Ac lent]
+9.1 +7.2 88 +7 +7 1003.4 1000.9 +3.1 0.0
00 24.05 ЮЗ 2 50 км {ливн. осадки} 10/4 600 м
[Cu Sc Ac trans Ci fib]
+17.7 +10.0 61 +18 +22 1003.1 1000.6
03 24.05 Ю 4 50 км 10/5 600 м
[Cb cap Ac trans Cc]
+19.8 +9.2 50 +21 +24 комфорт 1001.9 999.4
06 24.05 Ю 8-12
{12}
50 км {ливн. осадки} 10/6 600 м
[Cb cap Ac trans Ci fib]
+20.0 +5.9 40 +20 +21 1001.1 998.6
09 24.05 С 2
{12}
50 км 10/6 600 м
[Cb cap Ac As Ci fib]
+7.8 +5.0 82 +6 +6 1001.9 999.3 +22.5 0.0
12 24.05 штиль 0 29 км 10/5 600 м
[Sc As op]
+8.4 +5.4 81 +8 +8 1002.0 999.5
15 24.05 штиль 0 26 км 10/6 600 м
[Sc Ac As]
+8.1 +5.7 85 +7 +7 1001.6 999.0
18 24.05 штиль 0 30 км {ливн. осадки} 10/4 600 м
[Sc Ac trans Ci fib]
+7.8 +6.6 92 +7 +7 1000.5 997.9
21 24.05 штиль 0 20 км 10/4 600 м
[Sc Ac trans Cc]
+6.4 +4.6 88 +5 +6 1001.1 998.5 +5.1 0.3
00 25.05 С 2 50 км 10/0
[Ac trans Ci fib]
+11.2 +6.5 73 +10 +19 999.1 996.3
03 25.05 СЗ 2 50 км 10/0
[Ac trans Ci fib]
+13.9 +7.4 65 +13 +22 997.9 995.4
06 25.05 СВ 2 20 км 10/0
[Ac trans Cs]
+15.3 +7.5 60 +15 +21 997.8 995.3
09 25.05 С 2 20 км 10/0
[Cs]
+10.6 +6.3 75 +9 +10 998.2 995.7 +17.9
12 25.05 С 2 3800 м дымка 10/3 300 м
[St Ci fib]
+6.3 +5.3 93 +4 +4 1000.0 997.4
15 25.05 В 2 14 км 8/3 300 м
[St Ci fib]
+6.3 +5.3 93 +4 +4 999.9 997.3
18 25.05 СВ 2 500 м туман ?/? +5.1 +4.5 96 +2 +2 1001.6 999.1
21 25.05 С 2 4000 м дымка {туман} 10/4 300 м
[St Ac trans Ci fib]
+7.9 +7.5 97 +6 +7 1006.1 1003.5 +5.0
00 26.05 В 4 20 км {туман} 10/3 600 м
[Sc Ac trans Ci fib]
+10.2 +6.4 77 +8 +11 1007.8 1005.2
03 26.05 СВ 6-14
{14}
20 км 10/3 600 м
[Sc Ac trans Ci fib]
+10.8 +6.1 73 +8 +10 1009.5 1007.0
06 26.05 С 2 20 км 10/6 300 м
[St Ac trans Ci fib]
+8.4 +4.7 78 +7 +9 1011.4 1008.8
09 26.05 С 2 50 км 10/8 600 м
[Sc Ac trans Ci fib]
+7.3 +4.8 84 +5 +5 1012.9 1010.3 +11.3
12 26.05 ЮЗ 2 40 км 10/8 600 м
[Sc Ac trans Ci fib]
+9.9 +4.8 71 +9 +9 1013.6 1011.0
15 26.05 штиль 0 45 км 3/3 600 м
[Sc]
+6.9 +3.9 81 +6 +6 1013.6 1011.0

 

Местоположение метеостанции Советская Гавань (Хабаровский край, Россия): широта 49.00 долгота 140.30 высота над уровнем моря 24 м.

В архиве по умолчанию представлена погода в Советской Гавани за последнюю неделю. Архивные данные за месяц целиком и за предыдущие месяцы, начиная с января 2011 года, Вы можете получить, выбрав интересующий диапазон дат из раскрывающегося списка и нажав кнопку "Ввод!".


*Определитесь, кто Вы:
робот инопланетянин человек

Внимание! Время в таблицах - всемирное. Для получения местного времени необходимо прибавить поправку, которая равна 10 ч.

Смотрите также архив погоды в соседних городах и на ближайших метеорологических станциях:

Погода в Тумнине (Хабаровский край, Россия) (75 км)
Погода в Мопау (Хабаровский край, Россия) (103 км)
Погода в Углегорске (Сахалинская область, Россия) (124 км)
Погода в Солекуль (Хабаровский край, Россия) (169 км)
Погода в Пильво (Сахалинская область, Россия) (175 км)
Погода в Ильинском (Сахалинская область, Россия) (180 км)
Погода в Макарове (Сахалинская область, Россия) (181 км)
Погода в Сегжеме (Хабаровский край, Россия) (203 км)
Погода в Поронайске (Сахалинская область, Россия) (205 км)
Погода в Оноре (Сахалинская область, Россия) (209 км)

Пояснения к столбцам:

Ветер - указаны скорость ветра в м/с - средняя за 10 мин, порывы в срок и между сроками (в фигурных скобках) и направление, откуда дует ветер: С - северный, СВ - северо-восточный, В - восточный, ЮВ - юго-восточный, Ю - южный, ЮЗ - юго-западный, З - западный, СЗ - северо-западный.
Видимость - горизонтальная дальность видимости в метрах или километрах. При видимости от 1 до 10 км при отсутствии осадков обычно наблюдается дымка, при ухудшении видимости до 1 км и менее - туман. В сухую погоду видимость может ухудшаться дымом, пылью или мглою.
Явления - указаны атмосферные явления, наблюдавшиеся в срок или в последний час перед сроком; фигурными скобками обозначены явления, наблюдавшиеся между сроками (за 1-3 часа до срока); квадратными скобками обозначены град или гололедные отложения с указанием их диаметра в мм.
Облачность - указаны через наклонную черту общая и нижняя облачность в баллах и высота нижней границы облаков в метрах; квадратными скобками обозначены формы облаков: Ci - перистые, Cs - перисто-слоистые, Cc - перисто-кучевые, Ac - высококучевые, As - высокослоистые, Sc - слоисто-кучевые, Ns - слоисто-дождевые, Cu - кучевые, Cb - кучево-дождевые. Подробнее классификацию облаков см. в Атласе облаков (PDF).
T - Температура воздуха - температура, измеренная на высоте 2 м над землей.
Td - Температура точки росы - температура, при понижении до которой содержащийся в воздухе водяной пар достигнет насыщения.
f - Относительная влажность воздуха - влажноcть воздуха, измеренная на высоте 2 м над землей.
Te - Эффективная температура - температура, которую ощущает одетый по сезону человек в тени. Характеристика душности погоды. При расчете учитывается влияние влажности воздуха и скорости ветра на теплоощущения человека.
Tes - Эффективная температура на солнце - температура, которую ощущает человек, с поправкой на солнечный нагрев. Характеристика знойности погоды. Зависит от высоты солнца над горизонтом, облачности и скорости ветра. Ночью, в пасмурную погоду, а также при ветре 12 м/с и более поправка равна нулю.
P - Атмосферное давление - приведенное к уровню моря атмосферное давление.
Po - Атмосферное давление - измеренное на уровне метеостанции атмосферное давление.
Tmin - Минимальная температура - минимум температуры воздуха на высоте 2 м над землей.
Tmax - Максимальная температура - максимум температуры воздуха на высоте 2 м над землей.
R - Количество осадков - Количество выпавших осадков за период времени, мм. При наведении курсора мыши на число - период времени, за который выпало указанное количество осадков.
R24 - Количество осадков - Количество выпавших осадков за 24 часа, мм.
S - Снежный покров - Высота снежного покрова, см. При наведении курсора мыши на число - состояние снежного покрова и степень покрытия местности в баллах.